SCOUT A DEB, 2777

Orbit data source: Space-Track

SCOUT A DEB, 2777 is space debris in LEO originally from a launch on Fri, 14 Apr 1967 UTC launched from the Air Force Western Test Range (AFWTR). Debris objects in space refer to the collection of defunct objects orbiting the Earth. Examples of debris include non-operational satellites, rocket bodies, and fragments generated from explosions, collisions, or faulty payload assembly.

Loading next visibility...
Identifier
2777, 1967-034C
Orbit
LEO
Country
Flag of USUS
Related business
Manufacturer
Unknown
Mission
Spacecraft
Bus & Motor
Unknown
Mass
Unknown
Launch date (UTC)
1967-04-14 (58 years ago)
Launch vehicle
Unknown
Launch site
Air Force Western Test Range (AFWTR)
Object type
Payload
Rocket body
Debris
Shape & HBR
Unknown
Radar Cross Section
Small (<0.1 m²)

Expand to show TLE details & history
Last TLE update: 1 day ago

TLE from 1 day ago
0 SCOUT A DEB
1 02777U 67034C   25241.99493614  .00000897  00000-0  51155-3 0  9996
2 02777  90.2669 236.2363 0126284 314.0178  45.0651 14.05291702968565
Epoch: 2025-08-29T23:52Z
TLE epoch observation values (Epoch: 2025-08-29T23:52:42.482Z)
Latitude
0.00004°
Longitude
-100.3763°
Altitude
814.438 km
Speed
7.479 km/s
True Right ascension
15h 44m 56s
True Declination
0° 00' 00"
Sunlit
Object was in daylight at epoch
Visualization orbit readout
Latitude
Unknown
Longitude
Unknown
Altitude
Unknown
Speed
Unknown
Apparent Right ascension
Unknown
Apparent Declination
Unknown
Sunlit
N/A
Visualization observer readout
Local Sidereal Time
18:30:54
Azimuth
Unknown
Elevation
Unknown
Doppler factor
Unknown
Orbital elements
Apogee altitude
964.061 km
Perigee altitude
780.934 km
Semi-major axis
7,250.634 km
Eccentricity
0.01263
Inclination
90.2669°
RAAN
236.2363°
Arg. of periapsis
314.0178°
True anomaly
46.10101°
Mean anomaly
45.0651°
Eccentric anomaly
45.5819°
Mean motion
3.51544 °/min
Orbital period
102.41 mins
BSTAR
0.00051155
Loading maneuver chart data...
Computing Atmospheric mass density...
Loading historical data...
Loading historical data...
Loading historical data...
Loading historical data...
Loading historical data...
Loading historical data...
Loading historical data...

Documentation

Showing up to 5 results
|